Regional Weather Roundup
Issued by NWS Spokane, WA

Home | Current Version | Previous Version | Text Only | Print | Product List | Glossary On
Versions: 1 2 3 4 5 6 7 8 9 10 11 12 13 14 15 16 17 18 19 20 21 22 23 24 25 26 27 28 29 30 31 32 33 34 35 36 37 38 39 40 41 42 43 44 45 46 47 48 49 50
000
NZUS01 KOTX 300910
RWROTX
EASTERN WASHINGTON/NORTHERN IDAHO ROUNDUP
NATIONAL WEATHER SERVICE, SPOKANE WA
200 AM PDT MON MAR 30 2015

Note: "fair" indicated few or no clouds below 12,000 feet with no
significant weather and/or obstructions to visibility.

...NORTHEAST WASHINGTON AND NORTHERN IDAHO PANHANDLE...

CITY           SKY/WX    TMP DP  RH WIND       PRES   REMARKS
SPOKANE INTL   MOCLDY    45  37  73 S9        30.12S
SPOKANE DOWNTO PTCLDY    42  37  82 NE5       30.14S
COEUR D ALENE  CLEAR     39  36  87 E5        30.15S
DEER PARK      MOCLDY    36  34  92 CALM      30.13S
SANDPOINT      CLEAR     37  37 100 CALM      30.14S
BONNERS FERRY  CLOUDY    45  37  76 CALM      30.12S

...SOUTHEAST WASHINGTON AND SOUTHERN IDAHO PANHANDLE...

CITY           SKY/WX    TMP DP  RH WIND       PRES   REMARKS
WALLA WALLA    PTCLDY    52  37  56 SE6       30.12S
PULLMAN/MOSCOW CLEAR     43  36  76 NE3       30.16S
LEWISTON       CLEAR     48  39  71 SE3       30.15R
LOWELL           N/A     41  39  93 N3        30.22S

...COLUMBIA BASIN...

CITY           SKY/WX    TMP DP  RH WIND       PRES   REMARKS
EPHRATA        PTCLDY    47  39  74 CALM      30.09F
MOSES LAKE     PTCLDY    48  40  73 CALM      30.11F
TRI CITIES     CLEAR     45  40  82 CALM      30.12S
HERMISTON      CLEAR     39  34  82 CALM      30.12S
PENDLETON      CLEAR     47  41  80 SE12      30.12F

...EAST SLOPES CASCADES...

CITY           SKY/WX    TMP DP  RH WIND       PRES   REMARKS
THE DALLES     PTCLDY    47  39  74 CALM      30.13S
YAKIMA         CLEAR     42  36  79 W7        30.12S
ELLENSBURG     CLEAR     44  38  79 N8        30.11F
WENATCHEE      PTCLDY    52  40  63 NW7       30.11S
OMAK           CLOUDY    52  40  63 SE5       30.08F

...SOUTHERN BRITISH COLUMBIA...

CITY           SKY/WX    TMP DP  RH WIND       PRES   REMARKS
PENTICTON      MOCLDY    46  43  87 E3        30.08S
CRANBROOK      MOCLDY    46  34  61 SE5       30.07S

...WESTERN MONTANA...

CITY           SKY/WX    TMP DP  RH WIND       PRES   REMARKS
MISSOULA       PTCLDY    40  33  76 CALM      30.16F

...NEIGHBORING CITIES...

CITY           SKY/WX    TMP DP  RH WIND       PRES   REMARKS
SEATTLE        CLOUDY    54  48  80 SW7       30.14F
CALGARY        PTCLDY    37  27  65 N3        29.96R



USA.gov is the U.S. government's official web portal to all federal, state and local government web resources and services.